Time,TemperatureF,DewpointF,PressureIn,WindDirection,WindDirectionDegrees,WindSpeedMPH,WindSpeedGustMPH,Humidity,HourlyPrecipIn,Conditions,Clouds,dailyrainin,SoftwareType,DateUTC
2013-04-27 00:01:00,40.1,33.8,29.91,SSE,149,0.0,0.0,78,0.00,,,0.00,WeatherCatV1.15B25,2013-04-26 23:01:00,
2013-04-27 00:06:00,39.8,33.8,29.91,SE,129,0.0,0.0,79,0.00,,,0.00,WeatherCatV1.15B25,2013-04-26 23:06:00,
2013-04-27 00:11:00,39.6,33.6,29.91,SE,132,0.0,1.0,79,0.00,,,0.00,WeatherCatV1.15B25,2013-04-26 23:11:00,
2013-04-27 00:16:00,39.6,33.6,29.91,SE,146,0.0,0.0,79,0.00,,,0.00,WeatherCatV1.15B25,2013-04-26 23:16:00,
2013-04-27 00:21:00,39.5,33.8,29.91,SSE,158,0.0,0.0,80,0.00,,,0.00,WeatherCatV1.15B25,2013-04-26 23:21:00,
2013-04-27 00:25:00,39.3,33.7,29.91,SSE,156,0.0,0.0,80,0.00,,,0.00,WeatherCatV1.15B25,2013-04-26 23:25:00,
2013-04-27 00:30:00,39.3,33.7,29.91,SSE,156,0.0,0.0,80,0.00,,,0.00,WeatherCatV1.15B25,2013-04-26 23:30:00,
2013-04-27 00:35:00,39.3,33.7,29.91,SSE,156,0.0,0.0,80,0.00,,,0.00,WeatherCatV1.15B25,2013-04-26 23:35:00,
2013-04-27 00:40:00,39.3,33.7,29.91,SSE,156,0.0,0.0,80,0.00,,,0.00,WeatherCatV1.15B25,2013-04-26 23:40:00,
2013-04-27 00:45:00,39.3,33.7,29.91,SSE,156,0.0,0.0,80,0.00,,,0.00,WeatherCatV1.15B25,2013-04-26 23:45:00,
2013-04-27 00:50:00,39.3,33.7,29.91,SSE,156,0.0,0.0,80,0.00,,,0.00,WeatherCatV1.15B25,2013-04-26 23:50:00,
2013-04-27 00:55:00,39.3,33.7,29.91,SSE,156,0.0,0.0,80,0.00,,,0.00,WeatherCatV1.15B25,2013-04-26 23:55:00,
2013-04-27 01:00:00,39.3,33.7,29.91,SSE,156,0.0,0.0,80,0.00,,,0.00,WeatherCatV1.15B25,2013-04-27 00:00:00,
2013-04-27 01:05:00,39.2,33.9,29.91,SSE,155,0.0,0.1,81,0.00,,,0.00,WeatherCatV1.15B25,2013-04-27 00:05:00,
2013-04-27 01:10:00,39.2,33.9,29.91,SSE,155,0.0,0.1,81,0.00,,,0.00,WeatherCatV1.15B25,2013-04-27 00:10:00,
2013-04-27 01:15:00,39.2,33.9,29.91,SSE,155,0.0,0.1,81,0.00,,,0.00,WeatherCatV1.15B25,2013-04-27 00:15:00,
2013-04-27 01:20:00,39.2,33.9,29.91,SSE,155,0.0,0.1,81,0.00,,,0.00,WeatherCatV1.15B25,2013-04-27 00:20:00,
2013-04-27 01:25:00,39.2,33.9,29.91,SSE,155,0.0,0.1,81,0.00,,,0.00,WeatherCatV1.15B25,2013-04-27 00:25:00,
2013-04-27 01:30:00,39.2,34.2,29.91,SSE,155,0.0,0.2,82,0.00,,,0.00,WeatherCatV1.15B25,2013-04-27 00:30:00,
2013-04-27 01:35:00,39.2,34.2,29.91,SSE,155,0.0,0.2,82,0.00,,,0.00,WeatherCatV1.15B25,2013-04-27 00:35:00,
2013-04-27 01:40:00,39.2,34.2,29.91,SSE,155,0.0,0.2,82,0.00,,,0.00,WeatherCatV1.15B25,2013-04-27 00:40:00,
2013-04-27 01:45:00,39.2,34.2,29.91,SSE,155,0.0,0.2,82,0.00,,,0.00,WeatherCatV1.15B25,2013-04-27 00:45:00,
2013-04-27 01:50:00,39.2,34.2,29.91,SSE,155,0.0,0.2,82,0.00,,,0.00,WeatherCatV1.15B25,2013-04-27 00:50:00,
2013-04-27 01:55:00,39.2,34.2,29.91,SSE,155,0.0,0.2,82,0.00,,,0.00,WeatherCatV1.15B25,2013-04-27 00:55:00,
2013-04-27 02:00:00,39.2,34.2,29.91,SSE,155,0.0,0.2,82,0.00,,,0.00,WeatherCatV1.15B25,2013-04-27 01:00:00,
2013-04-27 02:05:00,39.1,34.4,29.92,SSE,155,0.0,0.2,83,0.00,,,0.00,WeatherCatV1.15B25,2013-04-27 01:05:00,
2013-04-27 02:10:00,39.1,34.4,29.92,SSE,155,0.0,0.2,83,0.00,,,0.00,WeatherCatV1.15B25,2013-04-27 01:10:00,
2013-04-27 02:15:00,39.1,34.4,29.92,SSE,155,0.0,0.2,83,0.00,,,0.00,WeatherCatV1.15B25,2013-04-27 01:15:00,
2013-04-27 02:20:00,39.1,34.4,29.92,SSE,155,0.0,0.2,83,0.00,,,0.00,WeatherCatV1.15B25,2013-04-27 01:20:00,
2013-04-27 02:25:00,39.1,34.4,29.92,SSE,155,0.0,0.2,83,0.00,,,0.00,WeatherCatV1.15B25,2013-04-27 01:25:00,
2013-04-27 02:30:00,39.1,34.4,29.92,SSE,155,0.0,0.2,83,0.00,,,0.00,WeatherCatV1.15B25,2013-04-27 01:30:00,
2013-04-27 02:35:00,39.0,34.6,29.92,SSE,155,0.0,0.3,84,0.00,,,0.00,WeatherCatV1.15B25,2013-04-27 01:35:00,
2013-04-27 02:40:00,39.0,34.6,29.92,SSE,155,0.0,0.3,84,0.00,,,0.00,WeatherCatV1.15B25,2013-04-27 01:40:00,
2013-04-27 02:45:00,39.0,34.6,29.92,SSE,155,0.0,0.3,84,0.00,,,0.00,WeatherCatV1.15B25,2013-04-27 01:45:00,
2013-04-27 02:50:00,39.0,34.6,29.92,SSE,155,0.0,0.3,84,0.00,,,0.00,WeatherCatV1.15B25,2013-04-27 01:50:00,
2013-04-27 02:55:00,39.0,34.6,29.92,SSE,155,0.0,0.3,84,0.00,,,0.00,WeatherCatV1.15B25,2013-04-27 01:55:00,
2013-04-27 03:00:00,39.0,34.8,29.92,SSE,155,0.0,0.4,85,0.00,,,0.00,WeatherCatV1.15B25,2013-04-27 02:00:00,
2013-04-27 03:05:00,39.0,34.8,29.92,SSE,155,0.0,0.4,85,0.00,,,0.00,WeatherCatV1.15B25,2013-04-27 02:05:00,
2013-04-27 03:10:00,39.0,34.8,29.92,SSE,155,0.0,0.4,85,0.00,,,0.00,WeatherCatV1.15B25,2013-04-27 02:10:00,
2013-04-27 03:15:00,39.0,34.8,29.92,SSE,155,0.0,0.4,85,0.00,,,0.00,WeatherCatV1.15B25,2013-04-27 02:15:00,
2013-04-27 03:20:00,39.0,34.8,29.92,SSE,155,0.0,0.4,85,0.00,,,0.00,WeatherCatV1.15B25,2013-04-27 02:20:00,
2013-04-27 03:25:00,39.0,34.8,29.92,SSE,155,0.0,0.4,85,0.00,,,0.00,WeatherCatV1.15B25,2013-04-27 02:25:00,
2013-04-27 03:30:00,38.9,35.1,29.92,SSE,155,0.0,0.5,86,0.00,,,0.00,WeatherCatV1.15B25,2013-04-27 02:30:00,
2013-04-27 03:35:00,38.9,35.1,29.92,SSE,155,0.0,0.5,86,0.00,,,0.00,WeatherCatV1.15B25,2013-04-27 02:35:00,
2013-04-27 03:40:00,38.9,35.1,29.92,SSE,155,0.0,0.5,86,0.00,,,0.00,WeatherCatV1.15B25,2013-04-27 02:40:00,
2013-04-27 03:45:00,38.9,35.1,29.92,SSE,155,0.0,0.5,86,0.00,,,0.00,WeatherCatV1.15B25,2013-04-27 02:45:00,
2013-04-27 03:50:00,38.9,35.1,29.92,SSE,155,0.0,0.5,86,0.00,,,0.00,WeatherCatV1.15B25,2013-04-27 02:50:00,
2013-04-27 03:55:00,38.9,35.1,29.92,SSE,155,0.0,0.5,86,0.00,,,0.00,WeatherCatV1.15B25,2013-04-27 02:55:00,
2013-04-27 04:00:00,38.9,35.1,29.92,SSE,155,0.0,0.5,86,0.00,,,0.00,WeatherCatV1.15B25,2013-04-27 03:00:00,
2013-04-27 04:05:00,38.9,35.3,29.92,SSE,154,0.0,0.5,87,0.00,,,0.00,WeatherCatV1.15B25,2013-04-27 03:05:00,
2013-04-27 04:10:00,38.9,35.3,29.92,SSE,154,0.0,0.5,87,0.00,,,0.00,WeatherCatV1.15B25,2013-04-27 03:10:00,
2013-04-27 04:15:00,38.9,35.3,29.92,SSE,154,0.0,0.5,87,0.00,,,0.00,WeatherCatV1.15B25,2013-04-27 03:15:00,
2013-04-27 04:20:00,38.9,35.3,29.92,SSE,154,0.0,0.5,87,0.00,,,0.00,WeatherCatV1.15B25,2013-04-27 03:20:00,
2013-04-27 04:25:00,38.9,35.3,29.92,SSE,154,0.0,0.5,87,0.00,,,0.00,WeatherCatV1.15B25,2013-04-27 03:25:00,
2013-04-27 04:30:00,38.8,35.5,29.92,SSE,154,0.0,0.6,88,0.00,,,0.00,WeatherCatV1.15B25,2013-04-27 03:30:00,
2013-04-27 04:35:00,38.8,35.5,29.92,SSE,154,0.0,0.6,88,0.00,,,0.00,WeatherCatV1.15B25,2013-04-27 03:35:00,
2013-04-27 04:40:00,38.8,35.5,29.92,SSE,154,0.0,0.6,88,0.00,,,0.00,WeatherCatV1.15B25,2013-04-27 03:40:00,
2013-04-27 04:45:00,38.8,35.5,29.92,SSE,154,0.0,0.6,88,0.00,,,0.00,WeatherCatV1.15B25,2013-04-27 03:45:00,
2013-04-27 04:50:00,38.8,35.5,29.92,SSE,154,0.0,0.6,88,0.00,,,0.00,WeatherCatV1.15B25,2013-04-27 03:50:00,
2013-04-27 04:55:00,38.8,35.5,29.92,SSE,154,0.0,0.6,88,0.00,,,0.00,WeatherCatV1.15B25,2013-04-27 03:55:00,
2013-04-27 05:00:00,38.8,35.7,29.92,SSE,154,0.0,0.7,89,0.00,,,0.00,WeatherCatV1.15B25,2013-04-27 04:00:00,
2013-04-27 05:05:00,38.8,35.7,29.92,SSE,154,0.0,0.7,89,0.00,,,0.00,WeatherCatV1.15B25,2013-04-27 04:05:00,
2013-04-27 05:10:00,38.8,35.7,29.92,SSE,154,0.0,0.7,89,0.00,,,0.00,WeatherCatV1.15B25,2013-04-27 04:10:00,
2013-04-27 05:15:00,38.8,35.7,29.92,SSE,154,0.0,0.7,89,0.00,,,0.00,WeatherCatV1.15B25,2013-04-27 04:15:00,
2013-04-27 05:20:00,38.8,35.7,29.92,SSE,154,0.0,0.7,89,0.00,,,0.00,WeatherCatV1.15B25,2013-04-27 04:20:00,
2013-04-27 05:25:00,38.8,35.7,29.92,SSE,154,0.0,0.7,89,0.00,,,0.00,WeatherCatV1.15B25,2013-04-27 04:25:00,
2013-04-27 05:30:00,38.8,35.7,29.92,SSE,154,0.0,0.7,89,0.00,,,0.00,WeatherCatV1.15B25,2013-04-27 04:30:00,
2013-04-27 05:35:00,38.7,36.0,29.92,SSE,154,0.0,0.8,90,0.00,,,0.00,WeatherCatV1.15B25,2013-04-27 04:35:00,
2013-04-27 05:40:00,38.7,36.0,29.92,SSE,154,0.0,0.8,90,0.00,,,0.00,WeatherCatV1.15B25,2013-04-27 04:40:00,
2013-04-27 05:45:00,38.7,36.0,29.92,SSE,154,0.0,0.8,90,0.00,,,0.00,WeatherCatV1.15B25,2013-04-27 04:45:00,
2013-04-27 05:50:00,38.7,36.0,29.92,SSE,154,0.0,0.8,90,0.00,,,0.00,WeatherCatV1.15B25,2013-04-27 04:50:00,
2013-04-27 05:55:00,38.7,36.0,29.92,SSE,154,0.0,0.8,90,0.00,,,0.00,WeatherCatV1.15B25,2013-04-27 04:55:00,
2013-04-27 06:00:00,38.7,36.0,29.92,SSE,154,0.0,0.8,90,0.00,,,0.00,WeatherCatV1.15B25,2013-04-27 05:00:00,
2013-04-27 06:05:00,38.6,36.2,29.92,SSE,154,0.0,0.9,91,0.00,,,0.00,WeatherCatV1.15B25,2013-04-27 05:05:00,
2013-04-27 06:10:00,38.6,36.2,29.92,SSE,154,0.0,0.9,91,0.00,,,0.00,WeatherCatV1.15B25,2013-04-27 05:10:00,
2013-04-27 06:15:00,38.6,36.2,29.92,SSE,154,0.0,0.9,91,0.00,,,0.00,WeatherCatV1.15B25,2013-04-27 05:15:00,
2013-04-27 06:20:00,38.6,36.2,29.92,SSE,154,0.0,0.9,91,0.00,,,0.00,WeatherCatV1.15B25,2013-04-27 05:20:00,
2013-04-27 06:25:00,38.6,36.2,29.92,SSE,154,0.0,0.9,91,0.00,,,0.00,WeatherCatV1.15B25,2013-04-27 05:25:00,
2013-04-27 06:30:00,38.6,36.4,29.92,SSE,154,0.0,0.9,92,0.00,,,0.00,WeatherCatV1.15B25,2013-04-27 05:30:00,
2013-04-27 06:35:00,38.6,36.4,29.92,SSE,154,0.0,0.9,92,0.00,,,0.00,WeatherCatV1.15B25,2013-04-27 05:35:00,
2013-04-27 06:40:00,38.6,36.4,29.92,SSE,154,0.0,0.9,92,0.00,,,0.00,WeatherCatV1.15B25,2013-04-27 05:40:00,
2013-04-27 06:45:00,38.6,36.4,29.92,SSE,154,0.0,0.9,92,0.00,,,0.00,WeatherCatV1.15B25,2013-04-27 05:45:00,
2013-04-27 06:50:00,38.6,36.4,29.92,SSE,154,0.0,0.9,92,0.00,,,0.00,WeatherCatV1.15B25,2013-04-27 05:50:00,
2013-04-27 06:55:00,38.6,36.4,29.92,SSE,154,0.0,0.9,92,0.00,,,0.00,WeatherCatV1.15B25,2013-04-27 05:55:00,
2013-04-27 07:06:00,38.6,36.4,29.92,SSE,154,0.0,0.9,92,0.00,,,0.00,WeatherCatV1.15B25,2013-04-27 06:06:00,
2013-04-27 07:11:00,39.1,36.7,29.92,SE,129,0.0,2.0,91,0.00,,,0.00,WeatherCatV1.15B25,2013-04-27 06:11:00,
2013-04-27 07:16:00,39.3,36.6,29.92,ENE,68,0.0,1.0,90,0.00,,,0.00,WeatherCatV1.15B25,2013-04-27 06:16:00,
2013-04-27 07:21:00,39.4,36.4,29.92,SE,124,1.0,3.0,89,0.00,,,0.00,WeatherCatV1.15B25,2013-04-27 06:21:00,
2013-04-27 07:26:00,39.6,36.6,29.92,East,88,1.0,2.0,89,0.00,,,0.00,WeatherCatV1.15B25,2013-04-27 06:26:00,
2013-04-27 07:31:00,39.8,36.8,29.93,ESE,121,2.0,3.0,89,0.00,,,0.00,WeatherCatV1.15B25,2013-04-27 06:31:00,
2013-04-27 07:36:00,40.0,36.7,29.93,ESE,102,0.0,3.0,88,0.00,,,0.00,WeatherCatV1.15B25,2013-04-27 06:36:00,
2013-04-27 07:41:00,40.2,36.9,29.93,ENE,70,0.0,1.0,88,0.00,,,0.00,WeatherCatV1.15B25,2013-04-27 06:41:00,
2013-04-27 07:46:00,40.4,37.1,29.93,ESE,110,2.0,2.0,88,0.00,,,0.00,WeatherCatV1.15B25,2013-04-27 06:46:00,
2013-04-27 07:51:00,40.6,37.0,29.93,ESE,108,1.0,2.0,87,0.00,,,0.00,WeatherCatV1.15B25,2013-04-27 06:51:00,
2013-04-27 07:56:00,40.7,37.1,29.93,SSE,149,1.0,3.0,87,0.00,,,0.00,WeatherCatV1.15B25,2013-04-27 06:56:00,
2013-04-27 08:01:00,40.9,37.3,29.93,SSE,150,2.0,2.0,87,0.00,,,0.00,WeatherCatV1.15B25,2013-04-27 07:01:00,
2013-04-27 08:06:00,41.0,37.1,29.93,ESE,103,0.0,2.0,86,0.00,,,0.00,WeatherCatV1.15B25,2013-04-27 07:06:00,
2013-04-27 08:11:00,41.1,36.9,29.93,SE,130,1.0,3.0,85,0.00,,,0.00,WeatherCatV1.15B25,2013-04-27 07:11:00,
2013-04-27 08:16:00,41.3,37.4,29.93,ESE,103,0.0,1.0,86,0.00,,,0.00,WeatherCatV1.15B25,2013-04-27 07:16:00,
2013-04-27 08:21:00,41.4,36.9,29.93,ENE,75,0.0,7.0,84,0.00,,,0.00,WeatherCatV1.15B25,2013-04-27 07:21:00,
2013-04-27 08:26:00,41.5,36.7,29.93,NE,51,1.0,1.0,83,0.00,,,0.00,WeatherCatV1.15B25,2013-04-27 07:26:00,
2013-04-27 08:31:00,41.7,36.9,29.94,North,351,1.0,6.0,83,0.00,,,0.00,WeatherCatV1.15B25,2013-04-27 07:31:00,
2013-04-27 08:36:00,41.8,36.7,29.94,North,359,1.0,4.0,82,0.00,,,0.00,WeatherCatV1.15B25,2013-04-27 07:36:00,
2013-04-27 08:41:00,41.8,36.4,29.94,North,8,1.0,3.0,81,0.00,,,0.00,WeatherCatV1.15B25,2013-04-27 07:41:00,
2013-04-27 08:46:00,41.8,36.4,29.94,East,94,4.0,4.0,81,0.00,,,0.00,WeatherCatV1.15B25,2013-04-27 07:46:00,
2013-04-27 08:51:00,41.8,36.1,29.94,North,352,0.0,4.0,80,0.00,,,0.00,WeatherCatV1.15B25,2013-04-27 07:51:00,
2013-04-27 08:56:00,41.8,36.1,29.94,NNE,18,0.0,3.0,80,0.00,,,0.00,WeatherCatV1.15B25,2013-04-27 07:56:00,
2013-04-27 09:01:00,41.9,35.9,29.94,WNW,287,0.0,5.0,79,0.00,,,0.00,WeatherCatV1.15B25,2013-04-27 08:01:00,
2013-04-27 09:02:00,41.9,35.9,29.94,ENE,65,2.0,4.0,79,0.00,,,0.00,WeatherCatV1.15B25,2013-04-27 08:02:00,
2013-04-27 09:07:00,42.1,36.1,29.94,ENE,63,1.0,5.0,79,0.00,,,0.00,WeatherCatV1.15B25,2013-04-27 08:07:00,
2013-04-27 09:12:00,42.7,36.6,29.94,NE,36,0.0,2.0,79,0.00,,,0.00,WeatherCatV1.15B25,2013-04-27 08:12:00,
2013-04-27 09:17:00,43.8,37.4,29.94,North,4,0.0,4.0,78,0.00,,,0.00,WeatherCatV1.15B25,2013-04-27 08:17:00,
2013-04-27 09:22:00,44.3,37.6,29.94,East,84,2.0,3.0,77,0.00,,,0.00,WeatherCatV1.15B25,2013-04-27 08:22:00,
2013-04-27 09:27:00,44.2,36.4,29.95,ENE,78,0.0,6.0,74,0.00,,,0.00,WeatherCatV1.15B25,2013-04-27 08:27:00,
2013-04-27 09:32:00,44.0,36.3,29.95,ENE,68,3.0,5.0,74,0.00,,,0.00,WeatherCatV1.15B25,2013-04-27 08:32:00,
2013-04-27 09:37:00,44.0,35.9,29.95,East,92,2.0,10.0,73,0.00,,,0.00,WeatherCatV1.15B25,2013-04-27 08:37:00,
2013-04-27 09:42:00,44.5,36.7,29.95,East,101,2.0,2.0,74,0.00,,,0.00,WeatherCatV1.15B25,2013-04-27 08:42:00,
2013-04-27 09:47:00,44.6,36.5,29.95,NW,321,1.0,4.0,73,0.00,,,0.00,WeatherCatV1.15B25,2013-04-27 08:47:00,
2013-04-27 09:52:00,44.5,36.7,29.95,ESE,107,4.0,6.0,74,0.00,,,0.00,WeatherCatV1.15B25,2013-04-27 08:52:00,
2013-04-27 09:57:00,44.7,36.2,29.95,ESE,111,4.0,5.0,72,0.00,,,0.00,WeatherCatV1.15B25,2013-04-27 08:57:00,
2013-04-27 10:02:00,44.3,36.2,29.95,SE,134,3.0,3.0,73,0.00,,,0.00,WeatherCatV1.15B25,2013-04-27 09:02:00,
2013-04-27 10:07:00,44.5,36.4,29.95,ESE,108,3.0,5.0,73,0.00,,,0.00,WeatherCatV1.15B25,2013-04-27 09:07:00,
2013-04-27 10:12:00,44.7,36.2,29.95,East,84,1.0,5.0,72,0.00,,,0.00,WeatherCatV1.15B25,2013-04-27 09:12:00,
2013-04-27 10:17:00,44.7,36.2,29.95,NNW,342,1.0,5.0,72,0.00,,,0.00,WeatherCatV1.15B25,2013-04-27 09:17:00,
2013-04-27 10:22:00,44.7,35.9,29.95,NE,56,3.0,6.0,71,0.00,,,0.00,WeatherCatV1.15B25,2013-04-27 09:22:00,
2013-04-27 10:27:00,44.6,35.4,29.95,ESE,103,3.0,5.0,70,0.00,,,0.00,WeatherCatV1.15B25,2013-04-27 09:27:00,
2013-04-27 10:32:00,44.6,35.8,29.96,ENE,78,2.0,5.0,71,0.00,,,0.00,WeatherCatV1.15B25,2013-04-27 09:32:00,
2013-04-27 10:37:00,45.2,35.3,29.95,SE,137,1.0,4.0,68,0.00,,,0.00,WeatherCatV1.15B25,2013-04-27 09:37:00,
2013-04-27 10:42:00,45.5,35.6,29.96,ESE,109,2.0,6.0,68,0.00,,,0.00,WeatherCatV1.15B25,2013-04-27 09:42:00,
2013-04-27 10:47:00,45.5,35.6,29.96,East,82,3.0,4.0,68,0.00,,,0.00,WeatherCatV1.15B25,2013-04-27 09:47:00,
2013-04-27 10:52:00,45.4,36.2,29.96,ESE,108,2.0,5.0,70,0.00,,,0.00,WeatherCatV1.15B25,2013-04-27 09:52:00,
2013-04-27 10:57:00,44.9,36.1,29.96,ENE,65,5.0,6.0,71,0.00,,,0.00,WeatherCatV1.15B25,2013-04-27 09:57:00,
2013-04-27 11:02:00,44.5,35.7,29.97,East,98,1.0,6.0,71,0.00,,,0.00,WeatherCatV1.15B25,2013-04-27 10:02:00,
2013-04-27 11:07:00,44.3,36.2,29.97,ESE,109,1.0,5.0,73,0.00,,,0.00,WeatherCatV1.15B25,2013-04-27 10:07:00,
2013-04-27 11:12:00,44.1,35.7,29.97,SE,133,2.0,8.0,72,0.00,,,0.00,WeatherCatV1.15B25,2013-04-27 10:12:00,
2013-04-27 11:17:00,44.3,35.9,29.97,ESE,103,2.0,2.0,72,0.00,,,0.00,WeatherCatV1.15B25,2013-04-27 10:17:00,
2013-04-27 11:22:00,44.7,36.2,29.97,SE,127,2.0,3.0,72,0.00,,,0.00,WeatherCatV1.15B25,2013-04-27 10:22:00,
2013-04-27 11:27:00,44.8,35.3,29.97,ESE,116,2.0,7.0,69,0.00,,,0.00,WeatherCatV1.15B25,2013-04-27 10:27:00,
2013-04-27 11:32:00,45.0,35.8,29.97,ESE,104,4.0,4.0,70,0.00,,,0.00,WeatherCatV1.15B25,2013-04-27 10:32:00,
2013-04-27 11:37:00,45.2,35.6,29.97,ENE,59,1.0,4.0,69,0.00,,,0.00,WeatherCatV1.15B25,2013-04-27 10:37:00,
2013-04-27 11:42:00,45.4,35.8,29.97,ENE,62,2.0,5.0,69,0.00,,,0.00,WeatherCatV1.15B25,2013-04-27 10:42:00,
2013-04-27 11:47:00,45.6,36.0,29.98,NNE,23,0.0,2.0,69,0.00,,,0.00,WeatherCatV1.15B25,2013-04-27 10:47:00,
2013-04-27 11:52:00,46.0,36.0,29.98,NW,308,1.0,4.0,68,0.00,,,0.00,WeatherCatV1.15B25,2013-04-27 10:52:00,
2013-04-27 11:57:00,46.3,36.3,29.98,NW,319,0.0,6.0,68,0.00,,,0.00,WeatherCatV1.15B25,2013-04-27 10:57:00,
2013-04-27 12:02:00,46.7,36.3,29.97,SW,222,2.0,5.0,67,0.00,,,0.00,WeatherCatV1.15B25,2013-04-27 11:02:00,
2013-04-27 12:07:00,46.6,35.5,29.97,ENE,70,0.0,4.0,65,0.00,,,0.00,WeatherCatV1.15B25,2013-04-27 11:07:00,
2013-04-27 12:12:00,46.4,35.7,29.97,ESE,115,1.0,3.0,66,0.00,,,0.00,WeatherCatV1.15B25,2013-04-27 11:12:00,
2013-04-27 12:17:00,46.3,35.2,29.97,East,91,3.0,5.0,65,0.00,,,0.00,WeatherCatV1.15B25,2013-04-27 11:17:00,
2013-04-27 12:22:00,46.3,36.0,29.97,ESE,105,4.0,4.0,67,0.00,,,0.00,WeatherCatV1.15B25,2013-04-27 11:22:00,
2013-04-27 12:27:00,47.0,36.6,29.97,SE,136,1.0,4.0,67,0.00,,,0.00,WeatherCatV1.15B25,2013-04-27 11:27:00,
2013-04-27 12:32:00,48.1,36.5,29.98,West,281,2.0,5.0,64,0.00,,,0.00,WeatherCatV1.15B25,2013-04-27 11:32:00,
2013-04-27 12:37:00,48.7,36.3,29.98,NW,307,0.0,4.0,62,0.00,,,0.00,WeatherCatV1.15B25,2013-04-27 11:37:00,
2013-04-27 12:42:00,48.1,36.1,29.98,SSE,153,5.0,6.0,63,0.00,,,0.00,WeatherCatV1.15B25,2013-04-27 11:42:00,
2013-04-27 12:47:00,46.8,36.8,29.98,East,88,2.0,4.0,68,0.00,,,0.00,WeatherCatV1.15B25,2013-04-27 11:47:00,
2013-04-27 12:52:00,46.9,37.3,29.98,NNE,20,1.0,2.0,69,0.00,,,0.00,WeatherCatV1.15B25,2013-04-27 11:52:00,
2013-04-27 12:57:00,46.7,37.1,29.98,NE,41,2.0,6.0,69,0.00,,,0.00,WeatherCatV1.15B25,2013-04-27 11:57:00,
2013-04-27 13:02:00,46.3,37.8,29.98,SE,133,1.0,5.0,72,0.00,,,0.00,WeatherCatV1.15B25,2013-04-27 12:02:00,
2013-04-27 13:07:00,46.7,38.2,29.98,SE,144,3.0,6.0,72,0.00,,,0.00,WeatherCatV1.15B25,2013-04-27 12:07:00,
2013-04-27 13:12:00,46.8,37.9,29.98,SSE,160,4.0,5.0,71,0.00,,,0.00,WeatherCatV1.15B25,2013-04-27 12:12:00,
2013-04-27 13:17:00,48.1,39.9,29.98,NNW,340,2.0,5.0,73,0.00,,,0.00,WeatherCatV1.15B25,2013-04-27 12:17:00,
2013-04-27 13:22:00,48.5,39.5,29.98,East,99,2.0,3.0,71,0.00,,,0.00,WeatherCatV1.15B25,2013-04-27 12:22:00,
2013-04-27 13:27:00,47.9,38.6,29.98,NW,324,1.0,6.0,70,0.00,,,0.00,WeatherCatV1.15B25,2013-04-27 12:27:00,
2013-04-27 13:32:00,47.3,38.0,29.98,NNW,331,1.0,5.0,70,0.00,,,0.00,WeatherCatV1.15B25,2013-04-27 12:32:00,
2013-04-27 13:37:00,47.1,38.5,29.97,ESE,112,1.0,4.0,72,0.00,,,0.00,WeatherCatV1.15B25,2013-04-27 12:37:00,
2013-04-27 13:42:00,48.0,38.7,29.97,SE,127,2.0,9.0,70,0.00,,,0.00,WeatherCatV1.15B25,2013-04-27 12:42:00,
2013-04-27 13:47:00,48.9,39.6,29.97,SE,131,4.0,9.0,70,0.00,,,0.00,WeatherCatV1.15B25,2013-04-27 12:47:00,
2013-04-27 13:52:00,49.1,39.0,29.97,ENE,68,0.0,6.0,68,0.00,,,0.00,WeatherCatV1.15B25,2013-04-27 12:52:00,
2013-04-27 13:57:00,49.7,39.6,29.97,SE,143,2.0,5.0,68,0.00,,,0.00,WeatherCatV1.15B25,2013-04-27 12:57:00,
2013-04-27 14:02:00,50.8,39.5,29.97,ESE,119,0.0,6.0,65,0.00,,,0.00,WeatherCatV1.15B25,2013-04-27 13:02:00,
2013-04-27 14:07:00,51.2,39.0,29.97,SW,217,2.0,8.0,63,0.00,,,0.00,WeatherCatV1.15B25,2013-04-27 13:07:00,
2013-04-27 14:12:00,51.0,37.2,29.97,ESE,103,8.0,8.0,59,0.00,,,0.00,WeatherCatV1.15B25,2013-04-27 13:12:00,
2013-04-27 14:17:00,50.7,36.5,29.97,ENE,75,4.0,5.0,58,0.00,,,0.00,WeatherCatV1.15B25,2013-04-27 13:17:00,
2013-04-27 14:22:00,50.4,35.7,29.97,NE,34,1.0,5.0,57,0.00,,,0.00,WeatherCatV1.15B25,2013-04-27 13:22:00,
2013-04-27 14:27:00,50.3,36.1,29.97,NNW,328,0.0,3.0,58,0.00,,,0.00,WeatherCatV1.15B25,2013-04-27 13:27:00,
2013-04-27 14:32:00,51.1,37.7,29.97,NNW,334,2.0,3.0,60,0.00,,,0.00,WeatherCatV1.15B25,2013-04-27 13:32:00,
2013-04-27 14:37:00,50.8,38.3,29.97,ENE,77,2.0,6.0,62,0.00,,,0.00,WeatherCatV1.15B25,2013-04-27 13:37:00,
2013-04-27 14:42:00,50.8,38.7,29.97,NE,38,2.0,7.0,63,0.00,,,0.00,WeatherCatV1.15B25,2013-04-27 13:42:00,
2013-04-27 14:48:00,50.7,38.6,29.97,ENE,75,1.0,5.0,63,0.00,,,0.00,WeatherCatV1.15B25,2013-04-27 13:48:00,
2013-04-27 14:53:00,50.5,37.6,29.97,South,169,4.0,9.0,61,0.00,,,0.00,WeatherCatV1.15B25,2013-04-27 13:53:00,
2013-04-27 14:58:00,50.8,37.8,29.97,SE,144,3.0,7.0,61,0.00,,,0.00,WeatherCatV1.15B25,2013-04-27 13:58:00,
2013-04-27 15:03:00,50.7,38.6,29.97,SE,132,1.0,4.0,63,0.00,,,0.00,WeatherCatV1.15B25,2013-04-27 14:03:00,
2013-04-27 15:08:00,50.5,38.0,29.97,North,354,1.0,6.0,62,0.00,,,0.00,WeatherCatV1.15B25,2013-04-27 14:08:00,
2013-04-27 15:13:00,50.5,38.0,29.97,ESE,104,2.0,5.0,62,0.00,,,0.00,WeatherCatV1.15B25,2013-04-27 14:13:00,
2013-04-27 15:18:00,51.1,37.7,29.97,North,1,1.0,3.0,60,0.00,,,0.00,WeatherCatV1.15B25,2013-04-27 14:18:00,
2013-04-27 15:23:00,51.6,37.7,29.97,ENE,77,5.0,8.0,59,0.00,,,0.00,WeatherCatV1.15B25,2013-04-27 14:23:00,
2013-04-27 15:28:00,51.3,37.9,29.97,South,187,3.0,10.0,60,0.00,,,0.00,WeatherCatV1.15B25,2013-04-27 14:28:00,
2013-04-27 15:33:00,50.7,37.7,29.97,East,98,2.0,6.0,61,0.00,,,0.00,WeatherCatV1.15B25,2013-04-27 14:33:00,
2013-04-27 15:38:00,50.6,38.1,29.96,ESE,108,2.0,9.0,62,0.00,,,0.00,WeatherCatV1.15B25,2013-04-27 14:38:00,
2013-04-27 15:43:00,50.5,37.6,29.97,ENE,68,4.0,6.0,61,0.00,,,0.00,WeatherCatV1.15B25,2013-04-27 14:43:00,
2013-04-27 15:48:00,50.9,37.1,29.96,East,88,2.0,4.0,59,0.00,,,0.00,WeatherCatV1.15B25,2013-04-27 14:48:00,
2013-04-27 15:53:00,51.4,37.6,29.96,East,96,4.0,5.0,59,0.00,,,0.00,WeatherCatV1.15B25,2013-04-27 14:53:00,
2013-04-27 15:58:00,51.2,36.5,29.97,SE,132,1.0,7.0,57,0.00,,,0.00,WeatherCatV1.15B25,2013-04-27 14:58:00,
2013-04-27 16:03:00,50.9,37.1,29.97,East,81,3.0,5.0,59,0.00,,,0.00,WeatherCatV1.15B25,2013-04-27 15:03:00,
2013-04-27 16:08:00,50.6,37.2,29.97,ENE,74,3.0,4.0,60,0.00,,,0.00,WeatherCatV1.15B25,2013-04-27 15:08:00,
2013-04-27 16:13:00,50.6,36.4,29.97,NW,319,2.0,6.0,58,0.00,,,0.00,WeatherCatV1.15B25,2013-04-27 15:13:00,
2013-04-27 16:18:00,50.6,36.4,29.97,NNW,334,2.0,10.0,58,0.00,,,0.00,WeatherCatV1.15B25,2013-04-27 15:18:00,
2013-04-27 16:23:00,50.7,36.0,29.97,SSE,149,5.0,8.0,57,0.00,,,0.00,WeatherCatV1.15B25,2013-04-27 15:23:00,
2013-04-27 16:28:00,51.3,36.6,29.97,NNE,16,2.0,6.0,57,0.00,,,0.00,WeatherCatV1.15B25,2013-04-27 15:28:00,
2013-04-27 16:33:00,51.7,37.4,29.97,East,86,1.0,5.0,58,0.00,,,0.00,WeatherCatV1.15B25,2013-04-27 15:33:00,
2013-04-27 16:38:00,51.1,39.7,29.98,WNW,294,3.0,7.0,65,0.00,,,0.00,WeatherCatV1.15B25,2013-04-27 15:38:00,
2013-04-27 16:43:00,49.3,40.7,29.98,SE,138,1.0,2.0,72,0.00,,,0.00,WeatherCatV1.15B25,2013-04-27 15:43:00,
2013-04-27 16:48:00,47.3,39.4,29.98,NW,307,0.0,0.0,74,0.14,,,0.02,WeatherCatV1.15B25,2013-04-27 15:48:00,
2013-04-27 16:53:00,45.4,40.2,29.98,WSW,250,0.0,0.0,82,0.13,,,0.02,WeatherCatV1.15B25,2013-04-27 15:53:00,
2013-04-27 16:58:00,44.5,40.6,29.99,NNW,328,0.0,1.0,86,0.06,,,0.03,WeatherCatV1.15B25,2013-04-27 15:58:00,
2013-04-27 17:03:00,44.3,41.0,29.99,WNW,292,2.0,5.0,88,0.06,,,0.03,WeatherCatV1.15B25,2013-04-27 16:03:00,
2013-04-27 17:08:00,44.5,41.5,29.99,West,280,1.0,4.0,89,0.05,,,0.04,WeatherCatV1.15B25,2013-04-27 16:08:00,
2013-04-27 17:13:00,44.9,41.6,29.99,NW,305,5.0,5.0,88,0.05,,,0.04,WeatherCatV1.15B25,2013-04-27 16:13:00,
2013-04-27 17:18:00,45.3,41.7,29.99,NW,311,0.0,2.0,87,0.05,,,0.05,WeatherCatV1.15B25,2013-04-27 16:18:00,
2013-04-27 17:23:00,45.7,42.1,30.00,WNW,285,4.0,5.0,87,0.05,,,0.05,WeatherCatV1.15B25,2013-04-27 16:23:00,
2013-04-27 17:28:00,45.8,41.5,30.00,West,259,1.0,3.0,85,0.04,,,0.05,WeatherCatV1.15B25,2013-04-27 16:28:00,
2013-04-27 17:33:00,45.8,41.5,30.00,WSW,250,1.0,2.0,85,0.00,,,0.05,WeatherCatV1.15B25,2013-04-27 16:33:00,
2013-04-27 17:38:00,45.8,40.9,30.00,WSW,253,1.0,4.0,83,0.00,,,0.05,WeatherCatV1.15B25,2013-04-27 16:38:00,
2013-04-27 17:43:00,45.9,41.3,30.00,West,274,0.0,4.0,84,0.00,,,0.05,WeatherCatV1.15B25,2013-04-27 16:43:00,
2013-04-27 17:48:00,46.0,41.1,30.00,NNE,29,1.0,3.0,83,0.00,,,0.05,WeatherCatV1.15B25,2013-04-27 16:48:00,
2013-04-27 17:53:00,46.0,40.8,30.00,South,186,0.0,2.0,82,0.00,,,0.05,WeatherCatV1.15B25,2013-04-27 16:53:00,
2013-04-27 17:58:00,45.9,40.7,30.01,WSW,242,0.0,1.0,82,0.00,,,0.05,WeatherCatV1.15B25,2013-04-27 16:58:00,
2013-04-27 18:03:00,45.9,40.7,30.01,SW,232,1.0,2.0,82,0.00,,,0.05,WeatherCatV1.15B25,2013-04-27 17:03:00,
2013-04-27 18:08:00,46.0,40.5,30.01,North,351,0.0,3.0,81,0.00,,,0.05,WeatherCatV1.15B25,2013-04-27 17:08:00,
2013-04-27 18:13:00,46.0,40.2,30.01,WNW,300,0.0,1.0,80,0.00,,,0.05,WeatherCatV1.15B25,2013-04-27 17:13:00,
2013-04-27 18:18:00,46.1,40.0,30.01,West,278,1.0,5.0,79,0.00,,,0.05,WeatherCatV1.15B25,2013-04-27 17:18:00,
2013-04-27 18:23:00,46.2,40.4,30.01,SW,229,1.0,2.0,80,0.00,,,0.05,WeatherCatV1.15B25,2013-04-27 17:23:00,
2013-04-27 18:28:00,46.1,40.3,30.01,West,267,0.0,1.0,80,0.00,,,0.05,WeatherCatV1.15B25,2013-04-27 17:28:00,
2013-04-27 18:33:00,45.9,39.4,30.01,WSW,248,0.0,3.0,78,0.00,,,0.05,WeatherCatV1.15B25,2013-04-27 17:33:00,
2013-04-27 18:38:00,45.9,39.8,30.01,NE,51,0.0,1.0,79,0.00,,,0.05,WeatherCatV1.15B25,2013-04-27 17:38:00,
2013-04-27 18:43:00,46.0,39.9,30.01,WNW,285,0.0,2.0,79,0.00,,,0.05,WeatherCatV1.15B25,2013-04-27 17:43:00,
2013-04-27 18:48:00,46.0,39.2,30.02,NW,323,0.0,1.0,77,0.00,,,0.05,WeatherCatV1.15B25,2013-04-27 17:48:00,
2013-04-27 18:53:00,46.2,39.1,30.02,NW,311,0.0,6.0,76,0.00,,,0.05,WeatherCatV1.15B25,2013-04-27 17:53:00,
2013-04-27 18:58:00,46.2,38.7,30.02,NW,304,2.0,2.0,75,0.00,,,0.05,WeatherCatV1.15B25,2013-04-27 17:58:00,
2013-04-27 19:03:00,46.3,38.5,30.02,NNW,328,0.0,2.0,74,0.00,,,0.05,WeatherCatV1.15B25,2013-04-27 18:03:00,
2013-04-27 19:08:00,46.3,38.5,30.03,ESE,112,1.0,2.0,74,0.00,,,0.05,WeatherCatV1.15B25,2013-04-27 18:08:00,
2013-04-27 19:13:00,46.4,38.6,30.03,NNW,328,0.0,1.0,74,0.00,,,0.05,WeatherCatV1.15B25,2013-04-27 18:13:00,
2013-04-27 19:18:00,46.3,39.5,30.04,NNW,332,0.0,1.0,77,0.00,,,0.05,WeatherCatV1.15B25,2013-04-27 18:18:00,
2013-04-27 19:23:00,45.8,39.7,30.03,WNW,293,0.0,2.0,79,0.00,,,0.06,WeatherCatV1.15B25,2013-04-27 18:23:00,
2013-04-27 19:28:00,45.1,39.6,30.04,WNW,292,1.0,1.0,81,0.00,,,0.06,WeatherCatV1.15B25,2013-04-27 18:28:00,
2013-04-27 19:33:00,44.7,38.9,30.05,NW,304,1.0,3.0,80,0.00,,,0.06,WeatherCatV1.15B25,2013-04-27 18:33:00,
2013-04-27 19:38:00,44.3,38.5,30.05,NE,40,1.0,7.0,80,0.00,,,0.06,WeatherCatV1.15B25,2013-04-27 18:38:00,
2013-04-27 19:43:00,43.9,38.1,30.05,NW,318,0.0,3.0,80,0.00,,,0.06,WeatherCatV1.15B25,2013-04-27 18:43:00,
2013-04-27 19:48:00,43.8,38.4,30.05,East,96,0.0,1.0,81,0.00,,,0.06,WeatherCatV1.15B25,2013-04-27 18:48:00,
2013-04-27 19:53:00,43.7,38.6,30.05,ESE,112,0.0,1.0,82,0.00,,,0.06,WeatherCatV1.15B25,2013-04-27 18:53:00,
2013-04-27 19:58:00,43.7,38.6,30.05,ESE,123,0.0,0.0,82,0.00,,,0.06,WeatherCatV1.15B25,2013-04-27 18:58:00,
2013-04-27 20:03:00,43.6,39.1,30.05,ESE,123,0.0,0.0,84,0.00,,,0.06,WeatherCatV1.15B25,2013-04-27 19:03:00,
2013-04-27 20:08:00,43.5,39.0,30.05,ESE,113,0.0,0.0,84,0.00,,,0.06,WeatherCatV1.15B25,2013-04-27 19:08:00,
2013-04-27 20:13:00,43.4,39.2,30.06,SW,222,0.0,1.0,85,0.00,,,0.06,WeatherCatV1.15B25,2013-04-27 19:13:00,
2013-04-27 20:18:00,43.3,39.1,30.05,ESE,113,0.0,2.0,85,0.00,,,0.06,WeatherCatV1.15B25,2013-04-27 19:18:00,
2013-04-27 20:23:00,43.2,39.0,30.05,WNW,292,1.0,1.0,85,0.00,,,0.06,WeatherCatV1.15B25,2013-04-27 19:23:00,
2013-04-27 20:28:00,43.1,38.6,30.05,WSW,249,0.0,2.0,84,0.00,,,0.06,WeatherCatV1.15B25,2013-04-27 19:28:00,
2013-04-27 20:33:00,43.1,38.9,30.06,WSW,250,0.0,0.0,85,0.00,,,0.06,WeatherCatV1.15B25,2013-04-27 19:33:00,
2013-04-27 20:38:00,42.9,38.7,30.06,WSW,250,0.0,0.0,85,0.00,,,0.06,WeatherCatV1.15B25,2013-04-27 19:38:00,
2013-04-27 20:43:00,42.8,38.6,30.06,WSW,250,0.0,0.0,85,0.00,,,0.06,WeatherCatV1.15B25,2013-04-27 19:43:00,
2013-04-27 20:48:00,42.6,38.7,30.06,WSW,250,0.0,0.0,86,0.00,,,0.06,WeatherCatV1.15B25,2013-04-27 19:48:00,
2013-04-27 20:53:00,42.1,38.2,30.06,WSW,250,0.0,0.0,86,0.00,,,0.06,WeatherCatV1.15B25,2013-04-27 19:53:00,
2013-04-27 20:58:00,41.7,38.1,30.07,WSW,250,0.0,0.0,87,0.00,,,0.06,WeatherCatV1.15B25,2013-04-27 19:58:00,
2013-04-27 21:03:00,41.2,37.9,30.07,WSW,250,0.0,0.0,88,0.00,,,0.06,WeatherCatV1.15B25,2013-04-27 20:03:00,
2013-04-27 21:08:00,40.8,37.8,30.07,WSW,250,0.0,0.0,89,0.00,,,0.06,WeatherCatV1.15B25,2013-04-27 20:08:00,
2013-04-27 21:13:00,40.5,37.5,30.07,WSW,250,0.0,0.0,89,0.00,,,0.06,WeatherCatV1.15B25,2013-04-27 20:13:00,
2013-04-27 21:18:00,40.2,37.5,30.07,WSW,250,0.0,0.0,90,0.00,,,0.06,WeatherCatV1.15B25,2013-04-27 20:18:00,
2013-04-27 21:23:00,40.0,37.6,30.08,WSW,250,0.0,0.0,91,0.00,,,0.06,WeatherCatV1.15B25,2013-04-27 20:23:00,
2013-04-27 21:28:00,39.8,37.4,30.08,WSW,250,0.0,0.0,91,0.00,,,0.06,WeatherCatV1.15B25,2013-04-27 20:28:00,
2013-04-27 21:33:00,39.6,37.2,30.08,WSW,250,0.0,0.0,91,0.00,,,0.06,WeatherCatV1.15B25,2013-04-27 20:33:00,
2013-04-27 21:38:00,39.4,37.3,30.08,WSW,250,0.0,0.0,92,0.00,,,0.06,WeatherCatV1.15B25,2013-04-27 20:38:00,
2013-04-27 21:43:00,39.3,37.4,30.08,SSW,211,0.0,0.0,93,0.00,,,0.06,WeatherCatV1.15B25,2013-04-27 20:43:00,
2013-04-27 21:48:00,39.3,37.4,30.08,SSW,211,0.0,0.0,93,0.00,,,0.06,WeatherCatV1.15B25,2013-04-27 20:48:00,
2013-04-27 21:53:00,38.9,36.8,30.08,SSW,211,0.0,0.0,92,0.00,,,0.06,WeatherCatV1.15B25,2013-04-27 20:53:00,
2013-04-27 21:58:00,38.6,36.8,30.08,SSW,212,0.0,0.0,93,0.00,,,0.06,WeatherCatV1.15B25,2013-04-27 20:58:00,
2013-04-27 22:03:00,38.5,36.7,30.08,SSW,211,0.0,0.0,93,0.00,,,0.06,WeatherCatV1.15B25,2013-04-27 21:03:00,
2013-04-27 22:08:00,38.3,36.5,30.09,SSW,210,0.0,0.0,93,0.00,,,0.06,WeatherCatV1.15B25,2013-04-27 21:08:00,
2013-04-27 22:13:00,38.1,36.3,30.09,SSW,210,0.0,0.0,93,0.00,,,0.06,WeatherCatV1.15B25,2013-04-27 21:13:00,
2013-04-27 22:18:00,37.8,36.2,30.09,ESE,113,0.0,0.0,94,0.00,,,0.06,WeatherCatV1.15B25,2013-04-27 21:18:00,
2013-04-27 22:23:00,38.5,37.2,30.09,SE,129,0.0,0.0,95,0.00,,,0.06,WeatherCatV1.15B25,2013-04-27 21:23:00,
2013-04-27 22:28:00,38.9,37.3,30.09,NE,41,0.0,4.0,94,0.00,,,0.06,WeatherCatV1.15B25,2013-04-27 21:28:00,
2013-04-27 22:33:00,39.4,37.3,30.09,East,97,0.0,1.0,92,0.00,,,0.06,WeatherCatV1.15B25,2013-04-27 21:33:00,
2013-04-27 22:38:00,39.8,37.1,30.09,NNE,20,0.0,1.0,90,0.00,,,0.06,WeatherCatV1.15B25,2013-04-27 21:38:00,
2013-04-27 22:43:00,39.9,37.2,30.09,NNW,332,0.0,0.0,90,0.00,,,0.06,WeatherCatV1.15B25,2013-04-27 21:43:00,
2013-04-27 22:48:00,39.9,36.9,30.09,NE,48,1.0,1.0,89,0.00,,,0.06,WeatherCatV1.15B25,2013-04-27 21:48:00,
2013-04-27 22:53:00,40.1,37.1,30.10,East,87,0.0,2.0,89,0.00,,,0.06,WeatherCatV1.15B25,2013-04-27 21:53:00,
2013-04-27 22:58:00,40.4,37.1,30.10,NW,316,0.0,0.0,88,0.00,,,0.06,WeatherCatV1.15B25,2013-04-27 21:58:00,
2013-04-27 23:00:00,40.4,37.1,30.10,NW,315,0.0,0.0,88,0.00,,,0.06,WeatherCatV1.15B25,2013-04-27 22:00:00,
2013-04-27 23:05:00,40.6,37.0,30.10,ENE,74,0.0,1.0,87,0.00,,,0.06,WeatherCatV1.15B25,2013-04-27 22:05:00,
2013-04-27 23:10:00,40.6,37.0,30.10,NNE,29,0.0,1.0,87,0.00,,,0.06,WeatherCatV1.15B25,2013-04-27 22:10:00,
2013-04-27 23:15:00,40.5,36.9,30.10,NNE,12,0.0,1.0,87,0.00,,,0.06,WeatherCatV1.15B25,2013-04-27 22:15:00,
2013-04-27 23:20:00,40.4,36.8,30.10,NNW,338,0.0,0.0,87,0.00,,,0.06,WeatherCatV1.15B25,2013-04-27 22:20:00,
2013-04-27 23:25:00,40.4,36.8,30.10,East,92,0.0,0.0,87,0.00,,,0.06,WeatherCatV1.15B25,2013-04-27 22:25:00,
2013-04-27 23:30:00,40.6,37.0,30.10,East,85,0.0,1.0,87,0.00,,,0.06,WeatherCatV1.15B25,2013-04-27 22:30:00,
2013-04-27 23:35:00,40.8,36.9,30.10,ENE,75,0.0,1.0,86,0.00,,,0.06,WeatherCatV1.15B25,2013-04-27 22:35:00,
2013-04-27 23:40:00,40.7,36.8,30.10,ENE,75,0.0,0.0,86,0.00,,,0.06,WeatherCatV1.15B25,2013-04-27 22:40:00,
2013-04-27 23:45:00,40.2,36.6,30.10,ENE,75,0.0,0.0,87,0.00,,,0.06,WeatherCatV1.15B25,2013-04-27 22:45:00,
2013-04-27 23:50:00,39.7,36.2,30.11,ENE,75,0.0,0.0,87,0.00,,,0.06,WeatherCatV1.15B25,2013-04-27 22:50:00,
2013-04-27 23:55:00,39.4,36.1,30.10,ESE,106,0.0,0.0,88,0.00,,,0.06,WeatherCatV1.15B25,2013-04-27 22:55:00,